sat.trackr.live / text

‹ back to catalog

TIANLIAN 2-05

NORAD 63662 · 2025-084A

PAYLOAD ACTIVE UNKNOWN

§ Identity

Operator
Country
PRC
Launch date
2025-04-27
Launch site
XICLF
Launch vehicle
Mass (kg)
RCS (m²)

Purposes: comms

External: N2YO · Heavens-Above · Gunter

§ Orbital elements

Epoch: 2026-05-25T03:50:24.208224Z

Period
1,436.08 min
Inclination
4.5079°
Eccentricity
0.0003487
Mean motion
1.00273073 rev/d
Perigee alt
35,771.5 km
Apogee alt
35,800.9 km
Semi-major
42,164.4 km
B*
0.0000e+0
RAAN
280.1025°
Arg perigee
133.2919°
Mean anomaly
267.2985°
Rev number
415

§ Raw data

TIANLIAN 2-051 63662U 25084A   26145.16000241  .00000118  00000+0  00000+0 0  99922 63662   4.5079 280.1025 0003487 133.2919 267.2985  1.00273073  4150

JSON: /api/v1/satellites/63662 · /tle

For live sub-satellite position, see the globe view (requires WebGL).

§ Visibility from observer

Set your observer location to see the next 7 days of passes ≥ 10°. The values pass through the URL so the page stays shareable.

No JS? Fill the form by hand. The geolocation button needs JavaScript.